[[{"header":{"parameterUnit":"m.s-1","parameterCategory":1,"la1":30.2991,"la2":30.254,"lo1":-89.0895,"lo2":-89.0444,"dy":0.0017,"dx":0.0017,"nx":28,"ny":28,"refTime":"2023-03-30T15:00:00:Z","depth":0,"parameterNumber":2,"parameterNumberName":"U-component_of_WINDS"},"data":[0,0,0,0,0,0,0,0,0,0,0,0,0,0,0,0,0,0,0,0,0,0,0,0,0,0,0,0,0,0,0,0,0,0,0,0,0,0,0,0,0,0,0,0,0,0,0,0,0,0,0,0,0,0,0,0,0,0,-5.8693,-5.8693,0,-5.8711,-5.8711,-5.8712,-5.8618,-5.8615,-5.8612,-5.861,-5.8627,-5.863,-5.8633,0,0,0,0,0,0,0,0,0,0,0,0,0,-5.8574,-5.8577,-5.8693,-5.8693,-5.8693,-5.8711,-5.8711,-5.8712,-5.8618,-5.8615,-5.8612,-5.8609,-5.8626,-5.8629,-5.8633,0,0,0,0,0,0,0,0,0,0,0,0,0,-5.8613,-5.8578,-5.8693,-5.8649,-5.8645,-5.8711,-5.8711,-5.8712,-5.8619,-5.8615,-5.8611,-5.8607,-5.8625,-5.8629,-5.8633,-5.8742,0,0,-5.8647,-5.8649,0,0,0,0,0,0,0,0,-5.8611,-5.8617,-5.8655,-5.8652,-5.8648,-5.8658,-5.8676,-5.8722,-5.862,-5.8629,-5.861,-5.8605,-5.864,-5.8643,-5.8655,-5.8742,-5.8743,-5.8647,-5.865,-5.8652,-5.8653,0,0,0,0,0,0,0,-5.8608,-5.8616,-5.87,-5.8656,-5.8651,-5.8628,-5.8628,-5.8684,-5.8657,-5.8628,-5.8621,-5.8625,-5.8638,-5.8651,-5.8655,-5.8743,-5.8647,-5.8651,-5.8654,-5.8656,-5.8919,-5.8923,0,0,0,0,0,0,-5.8612,-5.8614,-5.8699,-5.87,-5.8619,-5.8633,-5.8634,-5.8659,-5.8656,-5.8652,-5.8628,-5.862,-5.8646,-5.865,-5.8655,-5.878,-5.8652,-5.8656,-5.8659,-5.8914,-5.892,-5.8924,0,0,0,0,0,0,-5.8609,-5.862,-5.8698,-5.8656,-5.8664,-5.8639,-5.8668,-5.8661,-5.8675,-5.8656,-5.8651,-5.8647,-5.8643,-5.8649,-5.8721,-5.8779,-5.8658,-5.8662,-5.8909,-5.8916,-5.8922,-5.9031,0,0,0,0,0,0,-5.8606,-5.862,-5.8661,-5.8657,-5.8666,-5.8764,-5.8672,-5.8665,-5.8683,-5.8673,-5.8673,-5.8669,-5.864,-5.8715,-5.8725,-5.8783,-5.8665,-5.8904,-5.8912,-5.892,-5.9022,-5.9041,-5.9056,0,0,0,0,0,-5.8602,-5.8691,-5.8664,-5.8674,-5.8718,-5.8768,-5.8773,-5.8738,-5.8688,-5.8729,-5.8717,-5.8669,-5.8772,-5.8723,-5.8734,-5.8794,-5.89,-5.891,-5.8919,-5.9014,-5.9037,-5.9056,0,0,0,0,0,0,-5.8701,-5.8689,-5.8659,-5.8749,-5.876,-5.8752,-5.8802,-5.8764,-5.8789,-5.8778,-5.8734,-5.8735,-5.8813,-5.8811,-5.8756,-5.8898,-5.8827,-5.884,-5.8896,-5.8917,-5.8934,-5.8931,-5.8669,0,0,0,0,0,-5.8734,-5.8776,-5.8764,-5.8844,-5.8852,-5.8827,-5.8847,-5.882,-5.8829,-5.8833,-5.8826,-5.8837,-5.8871,-5.8895,-5.8926,-5.9023,-5.902,-5.907,-5.9087,-5.9101,-5.9111,-5.9161,-5.9182,-5.8956,-5.8956,-5.8956,0,0,-5.88,-5.8799,-5.8829,-5.8864,-5.8869,-5.8913,-5.8831,-5.8881,-5.8912,-5.884,-5.8906,-5.8903,-5.8912,-5.8996,-5.9033,-5.8997,-5.9174,-5.9114,-5.9125,-5.9127,-5.9173,-5.9194,-5.9213,-5.8963,-5.8962,-5.8961,0,0,-5.8943,-5.8949,-5.9015,-5.9023,-5.9032,-5.9015,-5.9032,-5.903,-5.9024,-5.9091,-5.9037,-5.9075,-5.9136,-5.9143,-5.9156,-5.9304,-5.926,-5.9316,-5.9404,-5.9452,-5.947,-5.9485,-5.9535,-5.9554,-5.9327,-5.9327,-5.9327,0,-5.9025,-5.9089,-5.9054,-5.9108,-5.9124,-5.9063,-5.9129,-5.9138,-5.9157,-5.917,-5.913,-5.9205,-5.9206,-5.9291,-5.9327,-5.934,-5.9356,-5.9313,-5.9471,-5.9486,-5.95,-5.9547,-5.9566,-5.9334,-5.9333,-5.9332,-5.9332,0,-5.9187,-5.9233,-5.9286,-5.9306,-5.9329,-5.9389,-5.9362,-5.939,-5.9362,-5.9349,-5.9417,-5.9418,-5.9447,-5.9466,-5.9439,-5.9546,-5.9523,-5.9478,-5.9405,-5.9528,-5.9571,-5.959,-5.9343,-5.934,-5.9339,-5.9337,0,0,-5.9389,-5.9391,-5.9411,-5.9419,-5.9426,-5.946,-5.9518,-5.9547,-5.957,-5.9587,-5.9632,-5.9686,-5.9644,-5.9658,-5.9632,-5.9676,-5.979,-5.9624,-5.9624,-5.9652,-5.9906,-5.9937,-5.9959,-5.9763,-5.9766,-5.9769,-5.9904,0,-5.9527,-5.9624,-5.9595,-5.9693,-5.9734,-5.9677,-5.9727,-5.9737,-5.9727,-5.976,-5.9749,-5.9786,-5.973,-5.9738,-5.9779,-5.9767,-5.9839,-5.9758,-5.9802,-5.9804,-5.9797,-5.9982,-6.0015,-6.0142,-5.9921,-5.9924,-5.9926,0,-5.97,-5.9723,-5.9825,-5.9825,-5.9841,-5.9886,-5.991,-5.9944,-5.9953,-5.9943,-5.996,-5.9924,-5.998,-5.991,-5.9985,-5.993,-5.9947,-5.9944,-5.9948,-5.9948,-5.9869,-5.9982,-6.0182,-6.02,-5.9953,-5.9951,-5.9949,0,-5.9833,-5.989,-5.9958,-5.9967,-5.997,-6.0003,-6.0005,-6.0011,-6.0031,-6.0052,-6.0064,-6.0093,-6.0107,-6.0129,-6.0102,-6.0055,-6.018,-6.0109,-6.0171,-6.0172,-6.0196,-6.0194,-6.0398,-6.0214,-6.0214,-6.0214,-6.0213,0,-5.9987,-6.0051,-6.0018,-6.0059,-6.0129,-6.0095,-6.0165,-6.0161,-6.0167,-6.0206,-6.016,-6.0198,-6.0162,-6.0196,-6.0176,-6.0239,-6.0247,-6.0239,-6.0232,-6.0241,-6.0241,-6.0248,-6.0237,-6.0219,-6.0218,-6.0217,-6.0216,0,-6.0145,-6.0126,-6.0196,-6.0194,-6.0195,-6.0246,-6.0243,-6.028,-6.0269,-6.0319,-6.0328,-6.0309,-6.0347,-6.0324,-6.0362,-6.0349,-6.043,-6.0413,-6.0427,-6.0421,-6.0483,-6.0476,-6.0694,-6.072,-6.0524,-6.0526,-6.0528,0,-6.0243,-6.029,-6.0294,-6.0317,-6.0322,-6.0361,-6.0381,-6.035,-6.0373,-6.0388,-6.0423,-6.0458,-6.0483,-6.0546,-6.0535,-6.0564,-6.0544,-6.0619,-6.0548,-6.0555,-6.0541,-6.0537,-6.0541,-6.0632,-6.0634,-6.0636,-6.0638,0,-6.0417,-6.0406,-6.0436,-6.0464,-6.049,-6.051,-6.0526,-6.0548,-6.0518,-6.0545,-6.0583,-6.0603,-6.0643,-6.0677,-6.0701,-6.0703,-6.0665,-6.0661,-6.0676,-6.0684,-6.0688,-6.0683,-6.0462,-6.0655,-6.0653,-6.0652,-6.0651,-6.065,-6.0545,-6.0585,-6.0593,-6.0629,-6.0638,-6.0655,-6.069,-6.0683,-6.0715,-6.0744,-6.0725,-6.077,-6.0779,-6.0808,-6.0815,-6.0849,-6.0818,-6.0841,-6.0846,-6.0851,-6.0858,-6.0687,-6.0854,-6.0853,-6.0853,-6.0852,-6.0852,0,-6.0714,-6.0717,-6.0751,-6.0776,-6.0804,-6.0768,-6.0785,-6.081,-6.085,-6.0862,-6.0888,-6.0932,-6.0965,-6.0958,-6.0987,-6.1016,-6.0999,-6.1024,-6.1019,-6.102,-6.0886,-6.0868,-6.1037,-6.1037,-6.1037,-6.1037,-6.1037,-6.1037,-6.0805,-6.0869,-6.0859,-6.0927,-6.0929,-6.0973,-6.0985,-6.1,-6.1009,-6.106,-6.1088,-6.1083,-6.1087,-6.1116,-6.1145,-6.1142,-6.1153,-6.1184,-6.1174,-6.1048,-6.103,-6.1012,-6.0995,-6.1188,-6.1188,-6.1305,-6.1306,-6.1307]},{"header":{"parameterUnit":"m.s-1","parameterCategory":1,"la1":30.2991,"la2":30.254,"lo1":-89.0895,"lo2":-89.0444,"dy":0.0017,"dx":0.0017,"nx":28,"ny":28,"refTime":"2023-03-30T15:00:00:Z","depth":0,"parameterNumber":3,"parameterNumberName":"V-component_of_WINDS"},"data":[0,0,0,0,0,0,0,0,0,0,0,0,0,0,0,0,0,0,0,0,0,0,0,0,0,0,0,0,0,0,0,0,0,0,0,0,0,0,0,0,0,0,0,0,0,0,0,0,0,0,0,0,0,0,0,0,0,0,3.215,3.215,0,3.2183,3.2184,3.2184,3.2185,3.2185,3.2184,3.2184,3.2215,3.2216,3.2217,0,0,0,0,0,0,0,0,0,0,0,0,0,3.2085,3.2086,3.215,3.215,3.2151,3.2183,3.2184,3.2184,3.2185,3.2185,3.2184,3.2184,3.2215,3.2216,3.2218,0,0,0,0,0,0,0,0,0,0,0,0,0,3.2115,3.2086,3.215,3.2155,3.2156,3.2183,3.2184,3.2184,3.2185,3.2185,3.2184,3.2184,3.2214,3.2216,3.2218,3.2241,0,0,3.2223,3.2224,0,0,0,0,0,0,0,0,3.2113,3.2117,3.2154,3.2155,3.2156,3.218,3.2172,3.2203,3.2186,3.2174,3.2184,3.2183,3.2204,3.2206,3.2214,3.2242,3.2243,3.2223,3.2224,3.2225,3.2226,0,0,0,0,0,0,0,3.2111,3.2116,3.2163,3.2154,3.2156,3.2155,3.2159,3.2178,3.2192,3.2175,3.2175,3.2179,3.2204,3.2212,3.2214,3.2244,3.2223,3.2225,3.2226,3.2227,3.2294,3.2294,0,0,0,0,0,0,3.2108,3.2114,3.2162,3.2164,3.2133,3.2157,3.2161,3.2172,3.2191,3.2194,3.218,3.2179,3.2209,3.2212,3.2215,3.2244,3.2225,3.2227,3.2228,3.2293,3.2294,3.2295,0,0,0,0,0,0,3.2107,3.2113,3.216,3.2139,3.2145,3.2159,3.2171,3.2173,3.2181,3.2195,3.2197,3.2186,3.2209,3.2213,3.2235,3.2245,3.2228,3.2229,3.2292,3.2293,3.2294,3.23,0,0,0,0,0,0,3.2105,3.2112,3.2121,3.2139,3.2146,3.218,3.2172,3.2174,3.2185,3.2184,3.2201,3.2203,3.2209,3.2232,3.2237,3.2247,3.2231,3.2291,3.2293,3.2294,3.2299,3.2302,3.2303,0,0,0,0,0,3.2103,3.2121,3.2122,3.2127,3.2158,3.218,3.2184,3.2191,3.2186,3.2195,3.2204,3.2203,3.2243,3.2234,3.2239,3.225,3.2291,3.2292,3.2294,3.2298,3.2301,3.2303,0,0,0,0,0,0,3.2101,3.2123,3.2124,3.2149,3.2163,3.218,3.2192,3.2193,3.2208,3.2207,3.2214,3.2218,3.224,3.2247,3.2237,3.2274,3.2266,3.2269,3.2268,3.2271,3.2273,3.227,3.2232,0,0,0,0,0,3.2104,3.2122,3.2139,3.2159,3.2166,3.2178,3.2188,3.2192,3.2206,3.2212,3.2223,3.2236,3.2252,3.2262,3.2277,3.2301,3.2305,3.2311,3.2313,3.2315,3.2317,3.2331,3.2334,3.23,3.23,3.23,0,0,3.211,3.2124,3.2134,3.2159,3.217,3.2187,3.2183,3.22,3.2213,3.2214,3.2236,3.2244,3.226,3.2283,3.2294,3.229,3.2327,3.2317,3.2318,3.2319,3.2332,3.2336,3.2338,3.2301,3.2301,3.23,0,0,3.2128,3.2141,3.2159,3.2171,3.2189,3.2197,3.2202,3.222,3.2226,3.2248,3.225,3.2265,3.2292,3.2303,3.2312,3.2337,3.2337,3.2342,3.2352,3.2366,3.2368,3.2371,3.2379,3.2383,3.2344,3.2344,3.2344,0,3.2132,3.2159,3.2168,3.2186,3.2197,3.2202,3.222,3.2231,3.2253,3.226,3.2256,3.2291,3.2302,3.2328,3.2334,3.2342,3.2347,3.2339,3.2367,3.237,3.2372,3.2381,3.2384,3.2345,3.2345,3.2344,3.2344,0,3.2163,3.2181,3.2194,3.2217,3.2229,3.2247,3.2259,3.2271,3.2275,3.2283,3.2306,3.2319,3.2338,3.2344,3.2347,3.2371,3.2369,3.2366,3.2358,3.2376,3.2384,3.2387,3.2345,3.2345,3.2345,3.2345,0,0,3.2179,3.2209,3.2213,3.2224,3.2245,3.2259,3.2278,3.2298,3.2308,3.2323,3.2338,3.2362,3.2361,3.2371,3.2376,3.2388,3.2407,3.2384,3.2384,3.2387,3.2434,3.2435,3.2439,3.2408,3.2408,3.2409,3.2433,0,3.22,3.2234,3.2244,3.2273,3.229,3.2296,3.2312,3.2327,3.2335,3.2351,3.236,3.2377,3.2374,3.238,3.2392,3.2402,3.2416,3.2401,3.2421,3.2422,3.2417,3.2443,3.2444,3.2466,3.2436,3.2437,3.2437,0,3.2228,3.2246,3.2277,3.2297,3.2305,3.232,3.2339,3.2354,3.2371,3.2377,3.239,3.2394,3.2413,3.2405,3.2432,3.2421,3.2431,3.2437,3.2438,3.2439,3.243,3.2445,3.2473,3.2476,3.2442,3.2442,3.2441,0,3.2237,3.2268,3.2291,3.2301,3.2325,3.2335,3.2346,3.2362,3.2374,3.2391,3.2398,3.2417,3.2426,3.244,3.2449,3.2443,3.2475,3.2468,3.248,3.248,3.2485,3.2485,3.2515,3.2493,3.2493,3.2493,3.2493,0,3.2258,3.2277,3.2296,3.231,3.2331,3.2342,3.2363,3.2373,3.2389,3.2404,3.241,3.2424,3.2436,3.2452,3.2459,3.248,3.2484,3.2489,3.249,3.2488,3.2487,3.2493,3.2492,3.2494,3.2493,3.2493,3.2493,0,3.2271,3.2284,3.231,3.2332,3.2338,3.2353,3.2371,3.2385,3.2395,3.2415,3.242,3.2435,3.2455,3.2466,3.2489,3.2494,3.2517,3.2518,3.2512,3.2513,3.2524,3.2522,3.2558,3.2563,3.2538,3.2538,3.2539,0,3.2283,3.2298,3.2322,3.2334,3.2345,3.2364,3.2377,3.2389,3.2401,3.2423,3.2434,3.2454,3.247,3.2501,3.2513,3.2532,3.2533,3.2544,3.2535,3.2533,3.2532,3.2531,3.2533,3.2545,3.2545,3.2546,3.2546,0,3.2303,3.231,3.2328,3.235,3.2365,3.2382,3.2399,3.2408,3.2423,3.2437,3.2457,3.247,3.2496,3.2515,3.2535,3.2545,3.2548,3.2549,3.2553,3.255,3.2545,3.2547,3.2515,3.2548,3.2547,3.2547,3.2547,3.2547,3.2316,3.233,3.235,3.237,3.2385,3.2401,3.2415,3.2428,3.2446,3.2469,3.2475,3.2496,3.2514,3.2541,3.2552,3.2568,3.2566,3.2571,3.2572,3.2573,3.2574,3.2544,3.2572,3.2572,3.2572,3.2572,3.2572,0,3.2336,3.235,3.2369,3.2394,3.241,3.2413,3.2433,3.2446,3.2465,3.2482,3.2499,3.2523,3.2543,3.2558,3.2578,3.2588,3.259,3.2593,3.2591,3.2594,3.2575,3.2569,3.2591,3.2591,3.2591,3.2591,3.2591,3.2591,3.2349,3.2373,3.2382,3.2413,3.2427,3.2449,3.246,3.2475,3.2488,3.2515,3.2532,3.2543,3.2559,3.258,3.2598,3.2602,3.2609,3.2612,3.2616,3.2597,3.2595,3.2593,3.2588,3.2613,3.2613,3.2633,3.2634,3.2634]}]]